Time,TemperatureF,DewpointF,PressureIn,WindDirection,WindDirectionDegrees,WindSpeedMPH,WindSpeedGustMPH,Humidity,HourlyPrecipIn,Conditions,Clouds,dailyrainin,SolarRadiationWatts/m^2,SoftwareType,DateUTC
2013-06-11 00:00:00,58.0,57.0,-100.00,WNW,292,1.0,-999.0,94,-99.99,,,-99.99,0.000000,,2013-06-11 04:00:00,
2013-06-11 00:33:00,58.0,57.0,-100.00,WNW,292,1.0,-999.0,94,-99.99,,,-99.99,0.000000,,2013-06-11 04:33:00,
2013-06-11 00:43:00,58.0,57.0,-100.00,WNW,292,1.0,-999.0,94,-99.99,,,-99.99,0.000000,,2013-06-11 04:43:00,
2013-06-11 00:53:00,58.0,57.0,-100.00,WNW,292,1.0,-999.0,94,-99.99,,,-99.99,0.000000,,2013-06-11 04:53:00,
2013-06-11 01:00:00,58.0,57.0,-100.00,WNW,292,0.0,-999.0,95,-99.99,,,-99.99,0.000000,,2013-06-11 05:00:00,
2013-06-11 01:32:00,58.0,57.0,-100.00,WNW,292,0.0,-999.0,95,-99.99,,,-99.99,0.000000,,2013-06-11 05:32:00,
2013-06-11 01:42:00,58.0,57.0,-100.00,WNW,292,0.0,-999.0,95,-99.99,,,-99.99,0.000000,,2013-06-11 05:42:00,
2013-06-11 01:52:00,58.0,57.0,-100.00,WNW,292,0.0,-999.0,95,-99.99,,,-99.99,0.000000,,2013-06-11 05:52:00,
2013-06-11 03:00:00,57.0,56.0,-100.00,WNW,292,1.0,-999.0,96,-99.99,,,-99.99,0.000000,,2013-06-11 07:00:00,
2013-06-11 03:32:00,57.0,56.0,-100.00,WNW,292,1.0,-999.0,96,-99.99,,,-99.99,0.000000,,2013-06-11 07:32:00,
2013-06-11 03:42:00,57.0,56.0,-100.00,WNW,292,1.0,-999.0,96,-99.99,,,-99.99,0.000000,,2013-06-11 07:42:00,
2013-06-11 03:52:00,57.0,56.0,-100.00,WNW,292,1.0,-999.0,96,-99.99,,,-99.99,0.000000,,2013-06-11 07:52:00,
2013-06-11 04:00:00,57.0,56.0,-100.00,WNW,292,1.0,-999.0,97,-99.99,,,-99.99,0.000000,,2013-06-11 08:00:00,
2013-06-11 04:32:00,57.0,56.0,-100.00,WNW,292,1.0,-999.0,97,-99.99,,,-99.99,0.000000,,2013-06-11 08:32:00,
2013-06-11 04:42:00,57.0,56.0,-100.00,WNW,292,1.0,-999.0,97,-99.99,,,-99.99,0.000000,,2013-06-11 08:42:00,
2013-06-11 04:52:00,57.0,56.0,-100.00,WNW,292,1.0,-999.0,97,-99.99,,,-99.99,0.000000,,2013-06-11 08:52:00,
2013-06-11 05:00:00,57.0,57.0,-100.00,WNW,292,1.0,-999.0,97,-99.99,,,-99.99,0.000000,,2013-06-11 09:00:00,
2013-06-11 05:33:00,57.0,57.0,-100.00,WNW,292,1.0,-999.0,97,-99.99,,,-99.99,0.000000,,2013-06-11 09:33:00,
2013-06-11 05:43:00,57.0,57.0,-100.00,WNW,292,1.0,-999.0,97,-99.99,,,-99.99,0.000000,,2013-06-11 09:43:00,
2013-06-11 05:53:00,57.0,57.0,-100.00,WNW,292,1.0,-999.0,97,-99.99,,,-99.99,0.000000,,2013-06-11 09:53:00,
2013-06-11 06:00:00,57.0,56.0,-100.00,WNW,292,1.0,-999.0,97,-99.99,,,-99.99,0.000000,,2013-06-11 10:00:00,
2013-06-11 06:33:00,57.0,56.0,-100.00,WNW,292,1.0,-999.0,97,-99.99,,,-99.99,0.000000,,2013-06-11 10:33:00,
2013-06-11 06:43:00,57.0,56.0,-100.00,WNW,292,1.0,-999.0,97,-99.99,,,-99.99,0.000000,,2013-06-11 10:43:00,
2013-06-11 06:52:00,57.0,56.0,-100.00,WNW,292,1.0,-999.0,97,-99.99,,,-99.99,0.000000,,2013-06-11 10:52:00,
2013-06-11 07:00:00,57.0,56.0,-100.00,WNW,292,0.0,-999.0,97,-99.99,,,-99.99,8.120000,,2013-06-11 11:00:00,
2013-06-11 07:32:00,57.0,56.0,-100.00,WNW,292,0.0,-999.0,97,-99.99,,,-99.99,8.120000,,2013-06-11 11:32:00,
2013-06-11 07:42:00,57.0,56.0,-100.00,WNW,292,0.0,-999.0,97,-99.99,,,-99.99,8.120000,,2013-06-11 11:42:00,
2013-06-11 07:52:00,57.0,56.0,-100.00,WNW,292,0.0,-999.0,97,-99.99,,,-99.99,8.120000,,2013-06-11 11:52:00,
2013-06-11 08:00:00,58.0,57.0,-100.00,WSW,247,0.0,-999.0,97,-99.99,,,-99.99,58.000000,,2013-06-11 12:00:00,
2013-06-11 08:32:00,58.0,57.0,-100.00,WSW,247,0.0,-999.0,97,-99.99,,,-99.99,58.000000,,2013-06-11 12:32:00,
2013-06-11 08:42:00,58.0,57.0,-100.00,WSW,247,0.0,-999.0,97,-99.99,,,-99.99,58.000000,,2013-06-11 12:42:00,
2013-06-11 08:52:00,58.0,57.0,-100.00,WSW,247,0.0,-999.0,97,-99.99,,,-99.99,58.000000,,2013-06-11 12:52:00,
2013-06-11 09:00:00,59.0,59.0,-100.00,WSW,247,1.0,-999.0,97,0.01,,,-99.99,122.959999,,2013-06-11 13:00:00,
2013-06-11 09:32:00,59.0,59.0,-100.00,WSW,247,1.0,-999.0,97,0.01,,,-99.99,122.959999,,2013-06-11 13:32:00,
2013-06-11 09:42:00,59.0,59.0,-100.00,WSW,247,1.0,-999.0,97,0.01,,,-99.99,122.959999,,2013-06-11 13:42:00,
2013-06-11 09:52:00,59.0,59.0,-100.00,WSW,247,1.0,-999.0,97,0.01,,,-99.99,122.959999,,2013-06-11 13:52:00,
2013-06-11 10:00:00,62.0,61.0,-100.00,WSW,247,1.0,-999.0,96,-99.99,,,-99.99,319.000000,,2013-06-11 14:00:00,
2013-06-11 10:32:00,62.0,61.0,-100.00,WSW,247,1.0,-999.0,96,-99.99,,,-99.99,319.000000,,2013-06-11 14:32:00,
2013-06-11 10:42:00,62.0,61.0,-100.00,WSW,247,1.0,-999.0,96,-99.99,,,-99.99,319.000000,,2013-06-11 14:42:00,
2013-06-11 10:53:00,62.0,61.0,-100.00,WSW,247,1.0,-999.0,96,-99.99,,,-99.99,319.000000,,2013-06-11 14:53:00,
2013-06-11 12:00:00,72.0,64.0,-100.00,WSW,247,2.0,-999.0,75,-99.99,,,-99.99,651.919983,,2013-06-11 16:00:00,
2013-06-11 12:33:00,72.0,64.0,-100.00,WSW,247,2.0,-999.0,75,-99.99,,,-99.99,651.919983,,2013-06-11 16:33:00,
2013-06-11 12:42:00,72.0,64.0,-100.00,WSW,247,2.0,-999.0,75,-99.99,,,-99.99,651.919983,,2013-06-11 16:42:00,
2013-06-11 12:52:00,72.0,64.0,-100.00,WSW,247,2.0,-999.0,75,-99.99,,,-99.99,651.919983,,2013-06-11 16:52:00,
2013-06-11 13:00:00,76.0,65.0,-100.00,SW,225,3.0,-999.0,69,-99.99,,,-99.99,722.679993,,2013-06-11 17:00:00,
2013-06-11 13:32:00,76.0,65.0,-100.00,SW,225,3.0,-999.0,69,-99.99,,,-99.99,722.679993,,2013-06-11 17:32:00,
2013-06-11 13:43:00,76.0,65.0,-100.00,SW,225,3.0,-999.0,69,-99.99,,,-99.99,722.679993,,2013-06-11 17:43:00,
2013-06-11 13:52:00,76.0,65.0,-100.00,SW,225,3.0,-999.0,69,-99.99,,,-99.99,722.679993,,2013-06-11 17:52:00,
2013-06-11 14:00:00,78.0,65.0,-100.00,West,270,4.0,-999.0,65,-99.99,,,-99.99,615.960022,,2013-06-11 18:00:00,
2013-06-11 14:33:00,78.0,65.0,-100.00,West,270,4.0,-999.0,65,-99.99,,,-99.99,615.960022,,2013-06-11 18:33:00,
2013-06-11 14:43:00,78.0,65.0,-100.00,West,270,4.0,-999.0,65,-99.99,,,-99.99,615.960022,,2013-06-11 18:43:00,
2013-06-11 14:52:00,78.0,65.0,-100.00,West,270,4.0,-999.0,65,-99.99,,,-99.99,615.960022,,2013-06-11 18:52:00,
2013-06-11 15:00:00,78.0,64.0,-100.00,WNW,292,6.0,-999.0,62,-99.99,,,-99.99,762.119995,,2013-06-11 19:00:00,
2013-06-11 15:33:00,78.0,64.0,-100.00,WNW,292,6.0,-999.0,62,-99.99,,,-99.99,762.119995,,2013-06-11 19:33:00,
2013-06-11 15:42:00,78.0,64.0,-100.00,WNW,292,6.0,-999.0,62,-99.99,,,-99.99,762.119995,,2013-06-11 19:42:00,
2013-06-11 15:53:00,78.0,64.0,-100.00,WNW,292,6.0,-999.0,62,-99.99,,,-99.99,762.119995,,2013-06-11 19:53:00,
2013-06-11 16:00:00,78.0,63.0,-100.00,WNW,292,6.0,-999.0,60,-99.99,,,-99.99,633.359985,,2013-06-11 20:00:00,
2013-06-11 16:32:00,78.0,63.0,-100.00,WNW,292,6.0,-999.0,60,-99.99,,,-99.99,633.359985,,2013-06-11 20:32:00,
2013-06-11 16:42:00,78.0,63.0,-100.00,WNW,292,6.0,-999.0,60,-99.99,,,-99.99,633.359985,,2013-06-11 20:42:00,
2013-06-11 16:52:00,78.0,63.0,-100.00,WNW,292,6.0,-999.0,60,-99.99,,,-99.99,633.359985,,2013-06-11 20:52:00,
2013-06-11 17:00:00,78.0,62.0,-100.00,West,270,6.0,-999.0,58,-99.99,,,-99.99,493.000000,,2013-06-11 21:00:00,
2013-06-11 17:33:00,78.0,62.0,-100.00,West,270,6.0,-999.0,58,-99.99,,,-99.99,493.000000,,2013-06-11 21:33:00,
2013-06-11 17:42:00,78.0,62.0,-100.00,West,270,6.0,-999.0,58,-99.99,,,-99.99,493.000000,,2013-06-11 21:42:00,
2013-06-11 17:53:00,78.0,62.0,-100.00,West,270,6.0,-999.0,58,-99.99,,,-99.99,493.000000,,2013-06-11 21:53:00,
2013-06-11 19:00:00,79.0,61.0,-100.00,West,270,4.0,-999.0,55,-99.99,,,-99.99,276.079987,,2013-06-11 23:00:00,
2013-06-11 19:32:00,79.0,61.0,-100.00,West,270,4.0,-999.0,55,-99.99,,,-99.99,276.079987,,2013-06-11 23:32:00,
2013-06-11 19:42:00,79.0,61.0,-100.00,West,270,4.0,-999.0,55,-99.99,,,-99.99,276.079987,,2013-06-11 23:42:00,
2013-06-11 19:52:00,79.0,61.0,-100.00,West,270,4.0,-999.0,55,-99.99,,,-99.99,276.079987,,2013-06-11 23:52:00,
2013-06-11 21:00:00,77.0,65.0,-100.00,WNW,292,1.0,-999.0,65,-99.99,,,-99.99,47.560001,,2013-06-12 01:00:00,
2013-06-11 21:32:00,77.0,65.0,-100.00,WNW,292,1.0,-999.0,65,-99.99,,,-99.99,47.560001,,2013-06-12 01:32:00,
2013-06-11 21:42:00,77.0,65.0,-100.00,WNW,292,1.0,-999.0,65,-99.99,,,-99.99,47.560001,,2013-06-12 01:42:00,
2013-06-11 21:52:00,77.0,65.0,-100.00,WNW,292,1.0,-999.0,65,-99.99,,,-99.99,47.560001,,2013-06-12 01:52:00,
2013-06-11 22:00:00,72.0,63.0,-100.00,SE,135,1.0,-999.0,73,-99.99,,,-99.99,2.320000,,2013-06-12 02:00:00,
2013-06-11 22:32:00,72.0,63.0,-100.00,SE,135,1.0,-999.0,73,-99.99,,,-99.99,2.320000,,2013-06-12 02:32:00,
2013-06-11 22:42:00,72.0,63.0,-100.00,SE,135,1.0,-999.0,73,-99.99,,,-99.99,2.320000,,2013-06-12 02:42:00,
2013-06-11 22:52:00,72.0,63.0,-100.00,SE,135,1.0,-999.0,73,-99.99,,,-99.99,2.320000,,2013-06-12 02:52:00,